Time,TemperatureF,DewpointF,PressureIn,WindDirection,WindDirectionDegrees,WindSpeedMPH,WindSpeedGustMPH,Humidity,HourlyPrecipIn,Conditions,Clouds,dailyrainin,SoftwareType,DateUTC
2013-08-02 00:11:00,65.5,64.0,29.91,ESE,119,0.0,4.0,95,0.00,,,0.00,weatherlink.com 1.10,2013-08-02 04:11:00,
2013-08-02 00:41:00,65.4,64.0,29.89,ESE,119,2.0,4.0,96,0.00,,,0.00,weatherlink.com 1.10,2013-08-02 04:41:00,
2013-08-02 01:27:00,64.7,64.0,29.88,SE,131,4.0,6.0,97,0.00,,,0.00,weatherlink.com 1.10,2013-08-02 05:27:00,
2013-08-02 01:41:00,64.5,64.0,29.88,SE,128,3.0,5.0,97,0.00,,,0.00,weatherlink.com 1.10,2013-08-02 05:41:00,
2013-08-02 02:11:00,63.9,63.0,29.87,ESE,117,3.0,4.0,98,0.00,,,0.00,weatherlink.com 1.10,2013-08-02 06:11:00,
2013-08-02 02:26:00,63.6,63.0,29.87,ESE,117,3.0,5.0,98,0.00,,,0.00,weatherlink.com 1.10,2013-08-02 06:26:00,
2013-08-02 02:41:00,63.5,63.0,29.86,ESE,117,0.0,5.0,99,0.00,,,0.00,weatherlink.com 1.10,2013-08-02 06:41:00,
2013-08-02 02:56:00,63.6,63.0,29.86,ESE,117,0.0,2.0,99,0.00,,,0.00,weatherlink.com 1.10,2013-08-02 06:56:00,
2013-08-02 03:11:00,63.6,63.0,29.86,ESE,117,0.0,0.0,99,0.01,,,0.01,weatherlink.com 1.10,2013-08-02 07:11:00,
2013-08-02 03:27:00,64.1,64.0,29.85,ESE,117,0.0,0.0,99,0.02,,,0.02,weatherlink.com 1.10,2013-08-02 07:27:00,
2013-08-02 03:41:00,64.5,64.0,29.85,ESE,117,0.0,0.0,99,0.03,,,0.03,weatherlink.com 1.10,2013-08-02 07:41:00,
2013-08-02 03:56:00,64.9,65.0,29.84,SE,142,0.0,0.0,99,0.05,,,0.05,weatherlink.com 1.10,2013-08-02 07:56:00,
2013-08-02 04:11:00,65.0,65.0,29.84,South,175,0.0,0.0,98,0.05,,,0.06,weatherlink.com 1.10,2013-08-02 08:11:00,
2013-08-02 04:27:00,64.9,64.0,29.85,South,175,0.0,0.0,98,0.05,,,0.07,weatherlink.com 1.10,2013-08-02 08:27:00,
2013-08-02 04:41:00,64.9,64.0,29.85,South,176,0.0,0.0,98,0.05,,,0.08,weatherlink.com 1.10,2013-08-02 08:41:00,
2013-08-02 04:56:00,64.7,64.0,29.85,SW,229,0.0,4.0,97,0.04,,,0.09,weatherlink.com 1.10,2013-08-02 08:56:00,
2013-08-02 05:12:00,64.4,63.0,29.85,WSW,240,0.0,6.0,96,0.04,,,0.11,weatherlink.com 1.10,2013-08-02 09:12:00,
2013-08-02 05:26:00,64.3,63.0,29.85,WSW,240,0.0,3.0,96,0.05,,,0.12,weatherlink.com 1.10,2013-08-02 09:26:00,
2013-08-02 05:41:00,64.1,63.0,29.85,SE,133,2.0,3.0,97,0.05,,,0.13,weatherlink.com 1.10,2013-08-02 09:41:00,
2013-08-02 06:11:00,63.1,62.0,29.85,SE,133,4.0,5.0,97,0.03,,,0.14,weatherlink.com 1.10,2013-08-02 10:11:00,
2013-08-02 06:27:00,63.1,63.0,29.86,SE,133,0.0,3.0,98,0.04,,,0.16,weatherlink.com 1.10,2013-08-02 10:27:00,
2013-08-02 06:41:00,63.1,62.0,29.85,South,169,0.0,3.0,97,0.04,,,0.17,weatherlink.com 1.10,2013-08-02 10:41:00,
2013-08-02 07:11:00,62.9,62.0,29.86,WSW,238,0.0,2.0,97,0.05,,,0.19,weatherlink.com 1.10,2013-08-02 11:11:00,
2013-08-02 07:27:00,62.7,62.0,29.85,ESE,119,3.0,5.0,97,0.05,,,0.21,weatherlink.com 1.10,2013-08-02 11:27:00,
2013-08-02 07:42:00,62.3,62.0,29.86,ESE,112,3.0,4.0,97,0.04,,,0.21,weatherlink.com 1.10,2013-08-02 11:42:00,
2013-08-02 07:57:00,62.1,62.0,29.86,ESE,112,4.0,5.0,98,0.03,,,0.22,weatherlink.com 1.10,2013-08-02 11:57:00,
2013-08-02 08:12:00,61.9,61.0,29.86,ESE,112,0.0,3.0,98,0.03,,,0.22,weatherlink.com 1.10,2013-08-02 12:12:00,
2013-08-02 08:27:00,62.0,62.0,29.86,ESE,119,0.0,3.0,98,0.02,,,0.23,weatherlink.com 1.10,2013-08-02 12:27:00,
2013-08-02 08:42:00,62.0,62.0,29.85,ESE,116,2.0,3.0,98,0.03,,,0.24,weatherlink.com 1.10,2013-08-02 12:42:00,
2013-08-02 08:57:00,61.7,61.0,29.85,ESE,112,3.0,5.0,98,0.02,,,0.24,weatherlink.com 1.10,2013-08-02 12:57:00,
2013-08-02 09:27:00,61.2,61.0,29.84,ESE,109,3.0,4.0,98,0.01,,,0.24,weatherlink.com 1.10,2013-08-02 13:27:00,
2013-08-02 09:42:00,61.3,61.0,29.83,ESE,117,7.0,7.0,98,0.00,,,0.24,weatherlink.com 1.10,2013-08-02 13:42:00,
2013-08-02 09:57:00,61.5,61.0,29.84,ESE,119,2.0,5.0,98,0.00,,,0.24,weatherlink.com 1.10,2013-08-02 13:57:00,
2013-08-02 10:12:00,61.5,61.0,29.84,ESE,119,3.0,4.0,98,0.01,,,0.25,weatherlink.com 1.10,2013-08-02 14:12:00,
2013-08-02 10:27:00,61.5,61.0,29.84,ESE,119,3.0,4.0,98,0.01,,,0.25,weatherlink.com 1.10,2013-08-02 14:27:00,
2013-08-02 10:42:00,61.3,61.0,29.83,ESE,119,3.0,5.0,98,0.01,,,0.25,weatherlink.com 1.10,2013-08-02 14:42:00,
2013-08-02 10:57:00,61.3,61.0,29.83,ESE,122,5.0,9.0,99,0.01,,,0.25,weatherlink.com 1.10,2013-08-02 14:57:00,
2013-08-02 11:12:00,61.4,61.0,29.82,ESE,121,4.0,7.0,99,0.00,,,0.25,weatherlink.com 1.10,2013-08-02 15:12:00,
2013-08-02 11:27:00,61.8,62.0,29.83,ESE,120,4.0,7.0,99,0.00,,,0.25,weatherlink.com 1.10,2013-08-02 15:27:00,
2013-08-02 11:42:00,61.8,62.0,29.83,ESE,120,4.0,7.0,99,0.00,,,0.25,weatherlink.com 1.10,2013-08-02 15:42:00,
2013-08-02 11:57:00,61.9,62.0,29.82,ESE,120,2.0,4.0,99,0.00,,,0.25,weatherlink.com 1.10,2013-08-02 15:57:00,
2013-08-02 12:12:00,61.8,62.0,29.82,SE,128,5.0,7.0,99,0.00,,,0.25,weatherlink.com 1.10,2013-08-02 16:12:00,
2013-08-02 12:27:00,61.8,62.0,29.82,SE,132,2.0,5.0,99,0.00,,,0.25,weatherlink.com 1.10,2013-08-02 16:27:00,
2013-08-02 12:42:00,62.2,62.0,29.82,SE,128,2.0,5.0,99,0.00,,,0.25,weatherlink.com 1.10,2013-08-02 16:42:00,
2013-08-02 12:57:00,62.9,63.0,29.82,SE,128,0.0,3.0,99,0.00,,,0.25,weatherlink.com 1.10,2013-08-02 16:57:00,
2013-08-02 13:12:00,63.8,64.0,29.82,SSE,148,2.0,6.0,99,0.01,,,0.26,weatherlink.com 1.10,2013-08-02 17:12:00,
2013-08-02 13:27:00,64.1,64.0,29.82,South,172,1.0,6.0,99,0.01,,,0.26,weatherlink.com 1.10,2013-08-02 17:27:00,
2013-08-02 13:42:00,63.9,63.0,29.81,SE,134,2.0,5.0,98,0.01,,,0.26,weatherlink.com 1.10,2013-08-02 17:42:00,
2013-08-02 13:57:00,63.4,63.0,29.81,SE,134,5.0,7.0,98,0.01,,,0.26,weatherlink.com 1.10,2013-08-02 17:57:00,
2013-08-02 14:12:00,63.5,63.0,29.81,SE,129,3.0,6.0,99,0.00,,,0.26,weatherlink.com 1.10,2013-08-02 18:12:00,
2013-08-02 14:27:00,63.9,63.0,29.81,SE,144,0.0,4.0,98,0.00,,,0.26,weatherlink.com 1.10,2013-08-02 18:27:00,
2013-08-02 14:42:00,64.5,64.0,29.81,SE,144,2.0,4.0,99,0.00,,,0.26,weatherlink.com 1.10,2013-08-02 18:42:00,
2013-08-02 14:57:00,64.1,63.0,29.81,SE,142,4.0,4.0,97,0.00,,,0.26,weatherlink.com 1.10,2013-08-02 18:57:00,
2013-08-02 15:27:00,63.2,63.0,29.80,SE,126,6.0,9.0,98,0.00,,,0.26,weatherlink.com 1.10,2013-08-02 19:27:00,
2013-08-02 15:42:00,64.2,64.0,29.78,SE,143,5.0,8.0,98,0.00,,,0.26,weatherlink.com 1.10,2013-08-02 19:42:00,
2013-08-02 15:57:00,64.0,63.0,29.78,SSE,149,6.0,9.0,97,0.00,,,0.26,weatherlink.com 1.10,2013-08-02 19:57:00,
2013-08-02 16:12:00,63.7,63.0,29.78,SE,134,5.0,9.0,98,0.00,,,0.26,weatherlink.com 1.10,2013-08-02 20:12:00,
2013-08-02 16:27:00,63.2,62.0,29.77,SSE,153,5.0,12.0,97,0.00,,,0.26,weatherlink.com 1.10,2013-08-02 20:27:00,
2013-08-02 16:42:00,63.5,63.0,29.79,ESE,117,0.0,4.0,98,0.00,,,0.26,weatherlink.com 1.10,2013-08-02 20:42:00,
2013-08-02 16:57:00,64.3,64.0,29.79,ESE,117,0.0,0.0,98,0.00,,,0.26,weatherlink.com 1.10,2013-08-02 20:57:00,
2013-08-02 17:12:00,64.5,64.0,29.79,ESE,107,0.0,4.0,98,0.00,,,0.26,weatherlink.com 1.10,2013-08-02 21:12:00,
2013-08-02 17:27:00,63.7,63.0,29.79,ESE,107,4.0,5.0,97,0.00,,,0.26,weatherlink.com 1.10,2013-08-02 21:27:00,
2013-08-02 17:42:00,62.7,62.0,29.80,ESE,105,0.0,4.0,98,0.00,,,0.26,weatherlink.com 1.10,2013-08-02 21:42:00,
2013-08-02 17:57:00,62.5,62.0,29.81,ESE,105,0.0,0.0,98,0.00,,,0.26,weatherlink.com 1.10,2013-08-02 21:57:00,
2013-08-02 18:12:00,62.6,62.0,29.81,ESE,105,0.0,0.0,99,0.00,,,0.26,weatherlink.com 1.10,2013-08-02 22:12:00,
2013-08-02 18:27:00,62.6,62.0,29.80,ESE,105,1.0,5.0,99,0.02,,,0.28,weatherlink.com 1.10,2013-08-02 22:27:00,
2013-08-02 18:42:00,62.0,62.0,29.80,ESE,105,0.0,10.0,99,0.03,,,0.29,weatherlink.com 1.10,2013-08-02 22:42:00,
2013-08-02 18:57:00,62.3,62.0,29.79,NNW,327,3.0,4.0,99,0.03,,,0.29,weatherlink.com 1.10,2013-08-02 22:57:00,
2013-08-02 19:12:00,63.6,63.0,29.80,NW,323,0.0,2.0,99,0.03,,,0.29,weatherlink.com 1.10,2013-08-02 23:12:00,
2013-08-02 19:27:00,64.1,64.0,29.79,NW,325,0.0,2.0,99,0.01,,,0.29,weatherlink.com 1.10,2013-08-02 23:27:00,
2013-08-02 19:42:00,64.4,64.0,29.79,NW,325,0.0,0.0,100,0.00,,,0.29,weatherlink.com 1.10,2013-08-02 23:42:00,
2013-08-02 19:57:00,64.8,65.0,29.79,NW,325,0.0,1.0,99,0.00,,,0.29,weatherlink.com 1.10,2013-08-02 23:57:00,
2013-08-02 20:12:00,65.2,65.0,29.80,West,268,5.0,7.0,99,0.00,,,0.29,weatherlink.com 1.10,2013-08-03 00:12:00,
2013-08-02 20:27:00,65.5,65.0,29.82,WNW,282,7.0,8.0,99,0.00,,,0.29,weatherlink.com 1.10,2013-08-03 00:27:00,
2013-08-02 20:42:00,65.5,65.0,29.81,NW,307,3.0,8.0,97,0.00,,,0.29,weatherlink.com 1.10,2013-08-03 00:42:00,
2013-08-02 20:57:00,65.3,65.0,29.82,WNW,292,4.0,4.0,97,0.00,,,0.29,weatherlink.com 1.10,2013-08-03 00:57:00,
2013-08-02 21:12:00,65.4,64.0,29.82,West,279,0.0,5.0,96,0.00,,,0.29,weatherlink.com 1.10,2013-08-03 01:12:00,
2013-08-02 21:27:00,65.1,64.0,29.82,West,279,0.0,3.0,96,0.00,,,0.29,weatherlink.com 1.10,2013-08-03 01:27:00,
2013-08-02 21:42:00,64.4,64.0,29.82,West,280,0.0,1.0,97,0.00,,,0.29,weatherlink.com 1.10,2013-08-03 01:42:00,
2013-08-02 21:57:00,63.9,63.0,29.82,South,186,0.0,5.0,97,0.00,,,0.29,weatherlink.com 1.10,2013-08-03 01:57:00,
2013-08-02 22:12:00,63.3,63.0,29.82,SE,138,0.0,0.0,98,0.00,,,0.29,weatherlink.com 1.10,2013-08-03 02:12:00,
2013-08-02 22:27:00,62.9,62.0,29.82,ENE,59,0.0,2.0,98,0.00,,,0.29,weatherlink.com 1.10,2013-08-03 02:27:00,
2013-08-02 22:42:00,62.6,62.0,29.83,ENE,59,0.0,0.0,98,0.00,,,0.29,weatherlink.com 1.10,2013-08-03 02:42:00,
2013-08-02 22:57:00,62.4,62.0,29.82,ENE,59,0.0,0.0,99,0.00,,,0.29,weatherlink.com 1.10,2013-08-03 02:57:00,
2013-08-02 23:12:00,62.2,62.0,29.82,ENE,59,0.0,0.0,99,0.00,,,0.29,weatherlink.com 1.10,2013-08-03 03:12:00,
2013-08-02 23:27:00,61.8,61.0,29.82,North,9,0.0,0.0,98,0.00,,,0.29,weatherlink.com 1.10,2013-08-03 03:27:00,
2013-08-02 23:42:00,61.6,61.0,29.82,North,9,0.0,0.0,99,0.00,,,0.29,weatherlink.com 1.10,2013-08-03 03:42:00,
2013-08-02 23:57:00,61.1,61.0,29.83,North,9,0.0,0.0,98,0.00,,,0.29,weatherlink.com 1.10,2013-08-03 03:57:00,